Wind_Speed
25 24 24 24 23 22 22 22 21 21 20 20 20 20 20 19 19 19 19 20 20 22 23 23 24 25 25 26 27 27 26 25 23 22 21 20 18 17 17 16 16 15 14
26 25 25 24 24 23 22 22 21 21 20 19 19 19 19 19 18 18 18 19 20 21 22 23 24 24 25 27 28 29 29 28 27 25 24 23 22 20 19 18 18 17 16
27 25 24 24 24 23 23 22 21 20 19 19 19 18 18 18 18 18 18 19 19 20 21 22 23 23 23 25 27 28 30 31 30 29 27 26 25 24 22 21 20 19 19
26 25 25 24 24 24 23 22 21 20 20 19 19 19 18 18 17 17 17 17 18 18 19 21 22 22 23 24 26 28 29 31 32 31 30 29 28 27 26 24 23 22 21
26 25 25 25 25 24 24 23 22 20 20 19 19 19 18 18 17 16 16 16 16 16 17 18 19 20 21 23 25 27 30 32 33 33 32 32 30 30 29 28 27 25 24
26 27 26 26 25 25 24 24 24 22 21 20 20 19 19 18 17 16 15 14 14 14 15 16 17 18 20 21 23 25 27 30 32 33 34 33 33 32 32 31 30 28 27
25 27 27 27 25 25 24 24 24 23 22 22 21 20 20 19 18 17 15 14 14 13 14 15 16 17 19 20 21 23 25 27 30 32 34 34 34 34 35 34 33 32 31
24 25 25 26 25 25 25 25 26 25 25 24 23 22 22 21 20 19 17 16 15 14 13 14 15 17 18 20 21 22 23 25 28 30 32 34 35 36 36 36 36 35 34
25 25 25 25 26 26 27 27 28 27 27 27 26 25 24 23 22 21 19 18 17 16 15 15 15 16 17 18 20 21 22 23 26 28 30 32 34 35 36 37 37 37 36
26 26 27 27 28 28 28 28 30 31 30 29 29 28 27 26 25 24 22 20 19 18 17 16 16 16 16 17 18 19 20 22 23 26 28 29 31 34 35 37 37 38 37
29 29 30 30 30 30 30 31 31 33 33 33 32 31 30 29 28 26 25 23 21 20 19 18 17 17 17 17 18 19 19 21 22 24 27 29 30 31 34 35 36 38 39
35 36 35 34 34 35 34 34 34 35 35 35 34 34 33 32 30 29 27 26 24 22 21 20 19 18 17 17 18 18 19 20 21 23 25 27 29 30 32 35 36 36 37
42 41 41 40 39 38 38 37 38 38 38 38 38 37 36 35 33 31 30 28 26 25 23 22 21 19 18 18 18 19 19 21 21 22 24 26 28 29 30 32 33 34 36
48 47 47 46 45 44 42 42 42 42 42 41 41 41 40 38 37 35 32 30 29 27 25 24 22 21 20 19 19 19 20 21 22 23 23 24 26 27 29 30 31 32 33
53 53 53 52 51 50 49 48 48 47 46 45 44 44 43 42 40 38 36 33 31 29 28 26 24 23 21 21 20 20 20 20 21 22 23 24 24 25 26 28 30 31 32
58 58 58 58 57 56 56 55 54 53 52 50 49 48 47 46 44 42 40 36 34 31 29 29 27 25 23 22 21 21 20 20 20 21 22 23 24 24 25 26 28 29 30
60 61 62 62 62 62 61 60 59 58 57 56 55 53 51 50 48 46 43 40 37 34 31 30 29 27 25 23 22 21 21 21 21 21 22 23 23 23 23 23 24 25 26
56 59 62 63 64 65 65 65 64 63 62 60 59 58 56 54 52 50 47 43 40 37 34 32 31 29 26 24 23 22 21 21 21 21 22 23 23 23 23 22 22 23 25
48 50 54 59 62 65 66 67 68 68 67 65 63 61 59 57 55 53 50 47 43 40 36 34 32 31 28 26 24 23 22 21 21 21 21 22 23 23 23 23 23 23 24
41 41 44 48 53 58 63 67 69 70 70 70 68 65 63 60 57 55 53 50 47 43 39 36 34 32 29 26 25 23 22 21 21 21 21 21 23 23 23 23 24 24 25
38 37 37 37 40 44 49 55 62 67 70 71 71 69 66 63 60 57 55 53 50 46 42 38 35 33 30 28 26 24 23 22 21 21 21 21 22 23 23 22 23 24 24
38 36 35 34 35 35 38 41 46 53 60 65 69 71 69 66 62 59 56 54 51 48 45 41 37 34 31 29 27 25 23 22 21 21 21 21 22 22 23 23 23 23 23
40 38 36 35 33 32 32 33 36 40 44 50 57 63 67 67 64 61 58 55 51 48 46 43 39 35 33 31 28 26 24 23 22 22 22 21 21 22 22 23 23 23 23
40 39 37 36 35 33 32 31 31 33 36 41 46 52 58 62 64 63 60 57 53 49 47 44 40 37 34 32 30 27 25 24 22 22 21 21 21 22 22 22 23 23 23
40 39 38 38 36 34 33 32 30 29 30 33 37 42 47 53 58 61 60 58 55 51 48 45 42 39 36 33 31 28 26 24 22 22 21 21 21 21 21 22 22 22 22
38 38 38 38 37 36 34 32 31 29 28 29 31 35 40 45 50 56 58 57 55 52 49 46 43 40 38 34 31 29 26 25 23 22 22 21 22 21 21 20 21 21 21
Wind_Direction
275 277 278 277 277 277 276 274 273 272 272 272 270 269 269 271 271 271 271 270 269 265 261 260 257 256 252 247 243 240 239 234 231 231 230 229 230 229 228 228 227 227 227
268 273 276 275 275 276 275 274 272 272 270 268 268 268 267 267 269 271 273 273 271 269 267 264 261 260 257 252 246 244 240 235 232 233 233 233 233 233 232 232 231 230 229
261 266 270 271 273 273 272 270 269 268 265 264 264 266 265 266 269 272 273 274 274 270 268 266 263 261 259 257 253 250 242 237 235 235 236 235 235 235 235 234 234 234 233
258 263 266 269 271 270 268 265 264 262 261 261 261 262 262 264 267 270 272 275 276 274 270 269 268 263 262 261 258 253 245 242 241 240 239 237 236 236 237 236 236 235 235
258 262 263 265 265 265 264 263 260 257 256 256 256 257 258 261 264 267 270 273 277 277 274 270 269 267 265 262 261 257 250 248 246 244 242 240 238 237 238 238 237 237 237
256 260 262 260 263 263 263 262 257 255 253 252 251 252 255 259 261 264 268 273 278 281 281 278 272 269 267 266 263 258 255 251 249 247 245 243 240 240 240 239 239 239 239
261 261 263 262 263 263 262 258 253 251 250 249 249 250 253 256 259 262 265 269 274 281 284 283 278 273 269 267 265 261 257 254 251 248 248 245 242 242 242 240 239 240 240
266 266 263 262 260 260 259 258 254 251 249 248 248 249 252 253 256 259 261 265 270 277 284 286 283 279 275 270 267 265 262 257 253 250 248 246 247 245 244 243 242 241 240
269 268 263 262 261 260 260 257 254 251 249 246 246 247 249 252 255 257 259 263 269 275 281 285 287 286 282 274 269 267 265 261 257 253 249 249 248 246 244 244 243 241 241
271 268 266 266 262 260 259 257 254 250 248 246 245 246 248 251 254 258 259 262 266 271 276 281 286 290 287 280 274 269 268 266 261 257 252 249 247 246 245 243 242 242 242
272 269 267 265 264 261 260 258 255 251 249 246 245 246 247 249 251 255 259 262 264 267 272 276 283 288 289 283 278 273 271 268 264 261 254 250 249 247 245 243 243 242 242
272 269 268 266 264 261 261 259 256 253 250 246 245 246 246 247 248 251 256 260 263 265 268 273 278 283 286 284 280 276 275 272 268 264 257 252 249 247 246 244 243 243 242
268 267 266 264 263 261 260 258 256 253 250 247 246 246 246 246 247 249 252 256 260 263 265 268 273 278 282 283 281 278 276 275 270 266 260 254 249 249 248 246 245 245 243
267 265 263 262 260 259 258 256 254 252 249 247 247 247 247 246 246 247 249 252 256 260 262 265 269 272 277 280 281 280 278 276 272 267 262 256 253 251 248 247 246 245 243
266 264 262 260 258 256 255 253 252 251 249 247 247 247 247 247 247 246 247 249 251 255 259 263 266 269 273 277 280 280 279 277 274 268 263 257 254 253 251 249 246 244 241
266 264 261 259 257 255 253 252 250 249 248 247 246 245 246 246 247 247 246 246 247 250 254 259 262 266 270 272 277 278 278 276 274 268 263 258 254 251 252 249 245 243 241
266 263 261 258 256 254 252 251 249 248 246 245 245 245 245 245 245 246 245 244 244 246 249 253 258 262 266 269 272 277 276 275 272 266 262 259 254 251 251 250 245 241 241
267 263 260 257 255 253 251 250 248 247 246 244 243 243 243 243 243 244 244 244 243 244 245 248 253 256 261 265 269 272 273 274 272 266 262 258 254 252 251 250 248 244 242
269 265 261 257 255 252 250 249 247 245 244 244 243 242 241 242 242 242 242 242 242 242 242 244 248 251 255 261 265 267 269 271 269 264 261 256 253 252 250 249 248 246 242
272 269 265 261 257 254 251 249 247 245 244 242 242 241 240 240 240 240 240 240 240 240 239 240 243 246 250 255 259 262 264 266 266 263 259 256 252 251 250 249 248 247 245
272 269 267 264 260 257 254 252 249 246 244 242 241 240 239 238 238 237 237 237 237 237 237 238 240 242 245 249 252 256 259 261 262 260 255 252 250 250 250 249 249 246 244
270 267 264 263 262 260 258 255 252 249 247 244 242 240 238 236 235 235 235 234 233 234 234 235 236 238 241 244 246 250 254 256 257 256 253 251 249 249 248 248 248 247 244
267 263 260 259 259 260 260 259 255 251 250 247 244 240 238 235 233 232 232 231 231 231 231 232 233 234 237 239 241 245 249 252 251 252 252 250 249 248 249 249 248 245 242
265 260 257 256 255 256 258 258 258 255 251 248 245 241 238 235 233 231 229 228 228 228 228 229 230 231 233 235 237 241 244 247 249 249 250 249 247 247 248 249 246 243 242
263 258 255 253 252 252 253 253 255 255 253 250 246 241 238 235 232 230 227 226 225 224 225 226 226 227 228 231 233 238 241 243 245 245 246 246 245 245 247 247 245 243 242
261 257 254 251 249 249 250 251 251 253 252 250 246 242 238 234 231 228 226 223 222 221 222 223 223 223 224 227 229 233 235 237 239 240 241 243 242 243 245 245 244 244 241
Height
5857 5857 5857 5856 5856 5856 5856 5856 5857 5857 5857 5857 5857 5858 5858 5858 5859 5859 5859 5859 5860 5860 5861 5862 5863 5864 5865 5867 5869 5871 5873 5875 5877 5879 5881 5883 5885 5887 5889 5890 5892 5894 5895
5849 5850 5850 5850 5850 5850 5850 5850 5851 5851 5852 5852 5852 5853 5853 5854 5854 5855 5855 5854 5855 5855 5856 5857 5857 5858 5860 5861 5863 5865 5867 5869 5872 5875 5877 5879 5881 5884 5886 5887 5889 5891 5893
5842 5842 5843 5844 5844 5844 5844 5844 5845 5846 5846 5847 5847 5848 5849 5849 5850 5850 5850 5850 5850 5850 5851 5851 5852 5853 5854 5856 5857 5858 5860 5863 5866 5869 5872 5874 5877 5879 5882 5884 5886 5888 5890
5834 5835 5836 5837 5837 5838 5838 5839 5839 5840 5841 5842 5842 5843 5844 5845 5845 5846 5846 5846 5845 5845 5845 5846 5846 5848 5849 5850 5852 5853 5854 5857 5860 5863 5866 5869 5871 5874 5877 5880 5882 5884 5886
5825 5827 5829 5830 5831 5831 5832 5833 5834 5835 5836 5837 5838 5839 5839 5840 5841 5841 5842 5842 5841 5841 5841 5841 5842 5842 5843 5844 5845 5846 5849 5851 5854 5856 5859 5863 5865 5868 5872 5875 5877 5880 5882
5818 5820 5822 5822 5824 5825 5826 5827 5828 5829 5830 5831 5832 5833 5835 5836 5837 5837 5838 5838 5838 5837 5837 5837 5837 5837 5838 5839 5840 5841 5843 5845 5847 5850 5853 5856 5859 5862 5866 5869 5872 5875 5877
5813 5814 5815 5816 5817 5819 5819 5820 5821 5823 5824 5826 5827 5828 5830 5831 5832 5833 5833 5834 5834 5834 5833 5833 5833 5833 5833 5833 5834 5836 5837 5838 5840 5843 5846 5849 5852 5855 5859 5862 5865 5869 5872
5807 5807 5808 5809 5810 5811 5812 5813 5815 5816 5818 5820 5821 5822 5824 5826 5827 5828 5829 5829 5830 5829 5829 5829 5828 5828 5828 5828 5829 5830 5831 5832 5834 5836 5839 5841 5844 5848 5851 5854 5858 5862 5865
5800 5801 5801 5802 5803 5804 5805 5806 5808 5809 5811 5813 5815 5816 5818 5820 5821 5822 5823 5824 5825 5825 5825 5824 5824 5823 5823 5823 5823 5824 5825 5826 5828 5829 5831 5834 5836 5840 5843 5847 5850 5854 5858
5794 5794 5794 5795 5795 5796 5797 5798 5800 5802 5803 5805 5808 5809 5811 5813 5815 5816 5817 5818 5819 5820 5820 5820 5819 5819 5818 5818 5818 5818 5819 5820 5821 5823 5824 5826 5829 5832 5835 5838 5842 5846 5850
5787 5787 5787 5787 5788 5788 5789 5790 5792 5793 5795 5797 5799 5802 5804 5806 5807 5809 5810 5812 5813 5814 5814 5814 5814 5814 5813 5813 5813 5813 5813 5814 5815 5816 5818 5820 5822 5824 5827 5830 5833 5837 5841
5778 5778 5778 5778 5778 5779 5780 5781 5782 5784 5786 5788 5790 5793 5796 5798 5800 5802 5803 5804 5806 5808 5808 5809 5809 5808 5808 5808 5808 5808 5808 5808 5809 5810 5811 5813 5815 5817 5820 5822 5826 5829 5833
5766 5766 5767 5767 5768 5768 5769 5770 5772 5774 5776 5778 5780 5783 5786 5789 5792 5794 5796 5798 5799 5800 5802 5802 5803 5803 5802 5802 5802 5802 5802 5802 5803 5804 5805 5806 5808 5810 5813 5815 5818 5821 5825
5751 5752 5753 5754 5755 5756 5757 5759 5761 5762 5764 5767 5770 5773 5776 5779 5782 5785 5788 5790 5792 5793 5794 5796 5796 5796 5796 5797 5797 5796 5796 5796 5797 5797 5798 5800 5801 5803 5806 5808 5811 5813 5817
5734 5734 5736 5737 5739 5741 5743 5745 5747 5750 5752 5755 5758 5761 5764 5767 5771 5774 5778 5781 5784 5785 5787 5788 5789 5790 5790 5790 5790 5790 5790 5790 5790 5791 5792 5793 5795 5797 5799 5801 5804 5806 5810
5714 5715 5716 5718 5720 5723 5725 5728 5731 5734 5737 5741 5744 5748 5751 5755 5759 5763 5767 5770 5774 5777 5779 5780 5782 5783 5784 5784 5784 5784 5784 5784 5784 5785 5786 5788 5789 5791 5793 5795 5797 5799 5802
5692 5693 5694 5696 5699 5702 5706 5709 5713 5716 5720 5724 5729 5733 5737 5741 5745 5750 5754 5759 5763 5767 5770 5772 5773 5775 5776 5777 5778 5778 5778 5778 5779 5779 5780 5782 5783 5785 5787 5789 5791 5793 5796
5669 5670 5671 5674 5676 5680 5684 5688 5692 5696 5701 5706 5711 5716 5721 5726 5731 5736 5741 5746 5751 5756 5760 5763 5765 5767 5769 5770 5771 5772 5772 5772 5772 5773 5774 5776 5778 5779 5781 5783 5785 5787 5790
5649 5649 5650 5651 5654 5657 5660 5665 5669 5675 5680 5686 5692 5698 5704 5710 5716 5721 5727 5733 5739 5744 5749 5753 5756 5758 5761 5763 5764 5765 5765 5766 5766 5767 5768 5770 5772 5774 5776 5777 5779 5782 5784
5631 5631 5631 5632 5633 5635 5638 5642 5647 5652 5658 5665 5672 5679 5686 5692 5699 5706 5712 5719 5725 5731 5737 5742 5747 5750 5753 5755 5757 5758 5759 5759 5760 5761 5762 5764 5766 5768 5770 5772 5774 5776 5778
5615 5615 5615 5616 5616 5617 5619 5621 5625 5630 5636 5642 5650 5658 5666 5674 5682 5689 5697 5704 5711 5718 5725 5731 5736 5741 5744 5747 5749 5751 5752 5753 5754 5755 5757 5759 5760 5762 5764 5766 5768 5770 5773
5599 5599 5600 5601 5602 5603 5604 5605 5607 5611 5616 5622 5629 5637 5646 5655 5664 5673 5681 5689 5697 5705 5713 5720 5726 5731 5735 5739 5741 5743 5745 5747 5748 5750 5751 5753 5755 5757 5759 5761 5763 5765 5767
5583 5584 5586 5587 5589 5590 5591 5593 5594 5597 5600 5604 5610 5617 5626 5636 5646 5656 5665 5674 5683 5692 5700 5708 5715 5721 5726 5730 5733 5736 5738 5740 5742 5743 5745 5747 5749 5751 5753 5755 5757 5759 5761
5566 5568 5571 5573 5576 5578 5580 5582 5583 5585 5588 5591 5594 5600 5609 5618 5628 5638 5649 5659 5669 5679 5688 5696 5704 5711 5716 5720 5724 5728 5730 5733 5735 5738 5740 5742 5743 5746 5748 5750 5752 5754 5756
5550 5552 5556 5559 5563 5566 5568 5571 5573 5575 5577 5579 5582 5587 5594 5602 5612 5623 5634 5645 5656 5666 5675 5684 5692 5700 5706 5711 5716 5720 5723 5726 5729 5732 5734 5736 5738 5740 5742 5744 5746 5748 5751
5533 5537 5541 5545 5549 5553 5556 5559 5562 5565 5567 5570 5572 5576 5582 5589 5596 5606 5618 5630 5642 5653 5663 5672 5681 5689 5696 5702 5707 5712 5716 5720 5723 5725 5728 5730 5733 5735 5737 5739 5741 5743 5745